Terminal Aerodrome Forecast
Issued by NWS Sterling, VA

Current Version | Previous Version | Graphics & Text | Print | Product List | Glossary On
Versions: 1 2 3 4 5 6 7 8 9 10 11 12 13 14 15 16 17 18 19 20 21 22 23 24
000
FTUS41 KLWX 221454 AAA
TAFIAD
TAF AMD
KIAD 221454Z 2215/2318 32015G27KT P6SM FEW060
     FM230000 33010KT P6SM SKC
     FM230300 34005KT P6SM SKC
     FM231700 27005KT P6SM SKC=

USA.gov is the U.S. government's official web portal to all federal, state and local government web resources and services.